HULIANWANG DIGUI 13E

Last updated on Wed Dec 10 2025 00:02:06 GMT+0000 (Coordinated Universal Time)

1 66416U 25258E 25342.85603980 .00000950 00000+0 52022-3 0 9997 2 66416 50.0065 278.4193 0005432 353.4979 6.5861 14.19737012 4105
UTC large
Height (km)
Speed (km/s)
/
Latitude / Longitude
Inclination (degrees)
Orbital Period (minutes)
Azimuth
Elevation
Range (km)
Doppler Factor

Next 0 passes for location: London (51.5072 / 0.1276)

Sorry there are no passes over London.